STARLINK-33665, 63281

Orbit data source: Space-Track

STARLINK-33665, 63281 is a payload satellite owned by SpaceX/Seattle (US) in LEO that was launched on Sat, 15 Mar 2025 UTC via an FALCON 9 launch vehicle from the Air Force Eastern Test Range (AFETR). Payload-class satellites include a variety of spacecraft equipped with specific instruments for various scientific and technological missions. These include communications satellites like Starlink; space stations such as the ISS; scientific satellites like the Hubble; Earth observation satellites from companies like Planet Labs, Umbra, and HawkEye 360; GPS; miniature CubeSats for education and research; and military/defense satellites.

Loading next visibility...
Identifier
63281, 2025-053S
Orbit
LEO
Country
Flag of USUS
Related business
Manufacturer
SpaceX/Seattle
Mission
Operational Commercial Communications
Bus & Motor
STARLINK V2MO, Unknown motor
Mass
575 kg wet, ~530 kg dry
Launch date (UTC)
2025-03-15 (1 year ago)
Launch vehicle
FALCON 9
Launch site
Air Force Eastern Test Range (AFETR)
Object type
Payload
Rocket body
Debris
Shape & HBR
Box + 2 Pan, 17.7 m
Radar Cross Section
36.964 m², Large (>1 m²)

Expand to show TLE details & history
Last TLE update: 13 hours ago

TLE from 13 hours ago
0 STARLINK-33665
1 63281U 25053S   26171.30919779  .00014110  00000-0  52106-3 0  9991
2 63281  43.0060  21.7239 0002927 272.9638  87.0878 15.27593020 71893
Epoch: 2026-06-20T07:25Z
TLE epoch observation values (Epoch: 2026-06-20T07:25:14.689Z)
Latitude
-0.00005°
Longitude
1.88697°
Altitude
482.685 km
Speed
7.626 km/s
True Right ascension
01h 26m 53s
True Declination
0° 00' 00"
Sunlit
Object was in daylight at epoch
Visualization orbit readout
Latitude
Unknown
Longitude
Unknown
Altitude
Unknown
Speed
Unknown
Apparent Right ascension
Unknown
Apparent Declination
Unknown
Sunlit
N/A
Visualization observer readout
Local Sidereal Time
07:12:52
Azimuth
Unknown
Elevation
Unknown
Doppler factor
Unknown
Orbital elements
Apogee altitude
486.963 km
Perigee altitude
482.945 km
Semi-major axis
6,863.091 km
Eccentricity
0.00029
Inclination
43.006°
RAAN
21.7239°
Arg. of periapsis
272.9638°
True anomaly
87.1213°
Mean anomaly
87.0878°
Eccentric anomaly
87.10455°
Mean motion
3.81736 °/min
Orbital period
94.31 mins
BSTAR
0.00052106
Loading maneuver chart data...
Computing Atmospheric mass density...
Loading historical data...
Loading historical data...
Loading historical data...
Loading historical data...
Loading historical data...
Loading historical data...
Loading historical data...

Documentation

Showing up to 5 results
|